Wetterdaten: Woche 23.01.12 - 29.01.12 (KW4)
Datum Zeit Temp. Innen Temp. Aussen UV X Diff Temp. Feuchte Inne Feuchte Auss Sonnenschein Luftdruck Regen ab 0,1 Wind Sonnenschein T Regendauer Windben
23.01.2012 00:00 13,2 C 5,1 C 0,0 UV-I 0,0 C 54 % 88 % 0 % 1013,2 hPa 0,0 l/m 4,7 km/h (1 Bft) 0,00 h 0,10 h 9,1 km/h (2 Bft)
23.01.2012 01:00 13,2 C 5,2 C 0,0 UV-I 0,0 C 54 % 90 % 0 % 1013,5 hPa 0,0 l/m 4,3 km/h (1 Bft) 0,00 h 0,00 h 8,6 km/h (2 Bft)
23.01.2012 02:00 13,1 C 5,1 C 0,0 UV-I 0,0 C 54 % 90 % 0 % 1013,3 hPa 0,0 l/m 4,2 km/h (1 Bft) 0,00 h 0,00 h 9,3 km/h (2 Bft)
23.01.2012 03:00 13,1 C 5,0 C 0,0 UV-I 0,0 C 55 % 92 % 0 % 1013,6 hPa 0,0 l/m 4,3 km/h (1 Bft) 0,00 h 0,00 h 8,5 km/h (2 Bft)
23.01.2012 04:00 13,0 C 4,6 C 0,0 UV-I 0,0 C 55 % 93 % 0 % 1013,9 hPa 0,0 l/m 2,4 km/h (1 Bft) 0,00 h 0,03 h 5,1 km/h (1 Bft)
23.01.2012 05:00 12,9 C 4,8 C 0,0 UV-I 0,0 C 55 % 94 % 0 % 1014,1 hPa 0,0 l/m 4,0 km/h (1 Bft) 0,00 h 0,00 h 10,5 km/h (2 Bft)
23.01.2012 06:00 12,9 C 5,0 C 0,0 UV-I 0,0 C 55 % 93 % 0 % 1014,1 hPa 0,0 l/m 3,2 km/h (1 Bft) 0,00 h 0,00 h 7,4 km/h (2 Bft)
23.01.2012 07:00 13,0 C 5,1 C 0,0 UV-I 0,0 C 55 % 93 % 0 % 1014,1 hPa 0,0 l/m 5,2 km/h (1 Bft) 0,00 h 0,00 h 10,4 km/h (2 Bft)
23.01.2012 08:00 13,0 C 5,2 C 0,0 UV-I 0,0 C 55 % 93 % 0 % 1014,1 hPa 0,0 l/m 6,5 km/h (2 Bft) 0,00 h 0,00 h 10,2 km/h (2 Bft)
23.01.2012 09:00 13,0 C 5,3 C 0,0 UV-I 0,0 C 55 % 93 % 0 % 1014,0 hPa 0,0 l/m 7,2 km/h (2 Bft) 0,00 h 0,23 h 12,8 km/h (3 Bft)
23.01.2012 10:00 13,0 C 5,6 C 0,0 UV-I 0,1 C 55 % 93 % 4 % 1014,4 hPa 0,0 l/m 7,9 km/h (2 Bft) 0,00 h 0,00 h 14,8 km/h (3 Bft)
23.01.2012 11:00 13,2 C 6,1 C 0,0 UV-I 0,5 C 55 % 92 % 14 % 1014,7 hPa 0,0 l/m 8,9 km/h (2 Bft) 0,00 h 0,00 h 15,5 km/h (3 Bft)
23.01.2012 12:00 13,4 C 6,6 C 0,1 UV-I 0,9 C 55 % 89 % 26 % 1014,6 hPa 0,0 l/m 9,7 km/h (2 Bft) 0,00 h 0,00 h 18,4 km/h (3 Bft)
23.01.2012 13:00 13,6 C 7,1 C 0,0 UV-I 0,9 C 54 % 84 % 26 % 1014,5 hPa 0,0 l/m 9,9 km/h (2 Bft) 0,00 h 0,00 h 18,1 km/h (3 Bft)
23.01.2012 14:00 14,0 C 6,9 C 0,0 UV-I 0,6 C 53 % 83 % 17 % 1014,2 hPa 0,1 l/m 8,7 km/h (2 Bft) 0,00 h 0,20 h 16,0 km/h (3 Bft)
23.01.2012 15:00 14,4 C 6,6 C 0,0 UV-I 1,4 C 52 % 85 % 40 % 1014,6 hPa 0,0 l/m 7,4 km/h (2 Bft) 0,33 h 0,00 h 13,1 km/h (3 Bft)
23.01.2012 16:00 14,5 C 6,2 C 0,0 UV-I 0,1 C 52 % 86 % 2 % 1014,6 hPa 0,0 l/m 4,8 km/h (1 Bft) 0,00 h 0,10 h 11,5 km/h (2 Bft)
23.01.2012 17:00 14,0 C 5,4 C 0,0 UV-I 0,0 C 52 % 87 % 0 % 1014,6 hPa 0,4 l/m 6,1 km/h (2 Bft) 0,00 h 0,23 h 11,2 km/h (2 Bft)
23.01.2012 18:00 13,5 C 4,5 C 0,0 UV-I 0,0 C 53 % 90 % 0 % 1014,8 hPa 0,2 l/m 3,4 km/h (1 Bft) 0,00 h 0,17 h 8,8 km/h (2 Bft)
23.01.2012 19:00 13,2 C 4,4 C 0,0 UV-I 0,0 C 53 % 92 % 0 % 1014,7 hPa 0,0 l/m 4,8 km/h (1 Bft) 0,00 h 0,03 h 9,4 km/h (2 Bft)
23.01.2012 20:00 13,2 C 4,0 C 0,0 UV-I 0,0 C 54 % 92 % 0 % 1014,9 hPa 0,0 l/m 2,3 km/h (1 Bft) 0,00 h 0,00 h 6,4 km/h (2 Bft)
23.01.2012 21:00 13,1 C 4,0 C 0,0 UV-I 0,0 C 53 % 93 % 0 % 1014,7 hPa 0,0 l/m 3,3 km/h (1 Bft) 0,00 h 0,00 h 8,5 km/h (2 Bft)
23.01.2012 22:00 13,0 C 3,1 C 0,0 UV-I 0,0 C 54 % 93 % 0 % 1015,5 hPa 1,9 l/m 5,2 km/h (1 Bft) 0,00 h 0,33 h 10,5 km/h (2 Bft)
23.01.2012 23:00 13,0 C 2,7 C 0,0 UV-I 0,0 C 54 % 95 % 0 % 1015,9 hPa 1,0 l/m 3,5 km/h (1 Bft) 0,00 h 0,23 h 8,4 km/h (2 Bft)
24.01.2012 00:00 12,9 C 2,6 C 0,0 UV-I 0,0 C 54 % 95 % 0 % 1016,1 hPa 0,0 l/m 2,2 km/h (1 Bft) 0,00 h 0,00 h 6,5 km/h (2 Bft)
24.01.2012 01:00 12,8 C 2,1 C 0,0 UV-I 0,0 C 54 % 95 % 0 % 1016,3 hPa 0,1 l/m 0,7 km/h (0 Bft) 0,00 h 0,00 h 2,8 km/h (1 Bft)
24.01.2012 02:00 12,8 C 1,6 C 0,0 UV-I 0,0 C 53 % 96 % 0 % 1016,8 hPa 0,0 l/m 1,0 km/h (0 Bft) 0,00 h 0,00 h 4,0 km/h (1 Bft)
24.01.2012 03:00 12,8 C 1,5 C 0,0 UV-I 0,0 C 53 % 96 % 0 % 1017,3 hPa 0,0 l/m 0,5 km/h (0 Bft) 0,00 h 0,00 h 1,8 km/h (1 Bft)
24.01.2012 04:00 12,8 C 1,6 C 0,0 UV-I 0,0 C 53 % 96 % 0 % 1017,7 hPa 0,0 l/m 0,4 km/h (0 Bft) 0,00 h 0,00 h 1,3 km/h (1 Bft)
24.01.2012 05:00 12,8 C 1,4 C 0,0 UV-I 0,0 C 53 % 96 % 0 % 1018,4 hPa 0,0 l/m 0,8 km/h (0 Bft) 0,00 h 0,00 h 3,2 km/h (1 Bft)
24.01.2012 06:00 12,8 C 1,3 C 0,0 UV-I 0,0 C 53 % 97 % 0 % 1018,6 hPa 0,0 l/m 0,5 km/h (0 Bft) 0,00 h 0,00 h 1,5 km/h (1 Bft)
24.01.2012 07:00 12,7 C 1,3 C 0,0 UV-I 0,0 C 53 % 97 % 0 % 1019,2 hPa 0,0 l/m 1,0 km/h (0 Bft) 0,00 h 0,00 h 2,9 km/h (1 Bft)
24.01.2012 08:00 12,7 C 1,5 C 0,0 UV-I 0,0 C 53 % 97 % 0 % 1019,9 hPa 0,0 l/m 0,2 km/h (0 Bft) 0,00 h 0,00 h 1,8 km/h (1 Bft)
24.01.2012 09:00 12,7 C 1,5 C 0,0 UV-I 0,1 C 53 % 97 % 2 % 1020,3 hPa 0,0 l/m 0,6 km/h (0 Bft) 0,00 h 0,00 h 1,2 km/h (1 Bft)
24.01.2012 10:00 12,8 C 2,4 C 0,0 UV-I 2,3 C 53 % 98 % 61 % 1020,9 hPa 0,1 l/m 3,3 km/h (1 Bft) 0,60 h 0,27 h 6,9 km/h (2 Bft)
24.01.2012 11:00 12,9 C 3,1 C 0,0 UV-I 1,2 C 53 % 97 % 33 % 1020,9 hPa 0,0 l/m 3,1 km/h (1 Bft) 0,00 h 0,00 h 7,6 km/h (2 Bft)
24.01.2012 12:00 13,1 C 4,0 C 0,1 UV-I 0,9 C 53 % 97 % 27 % 1021,1 hPa 0,0 l/m 3,7 km/h (1 Bft) 0,00 h 0,00 h 6,2 km/h (2 Bft)
24.01.2012 13:00 13,2 C 4,7 C 0,0 UV-I 0,5 C 53 % 97 % 14 % 1021,0 hPa 0,0 l/m 1,9 km/h (1 Bft) 0,00 h 0,00 h 5,3 km/h (1 Bft)
24.01.2012 14:00 13,2 C 5,1 C 0,0 UV-I 0,2 C 53 % 97 % 5 % 1020,8 hPa 0,0 l/m 1,3 km/h (1 Bft) 0,00 h 0,00 h 4,5 km/h (1 Bft)
24.01.2012 15:00 13,1 C 5,1 C 0,0 UV-I 0,0 C 54 % 96 % 0 % 1020,7 hPa 0,0 l/m 1,1 km/h (1 Bft) 0,00 h 0,00 h 3,4 km/h (1 Bft)
24.01.2012 16:00 13,2 C 4,8 C 0,0 UV-I 0,0 C 54 % 96 % 0 % 1020,7 hPa 0,0 l/m 0,6 km/h (0 Bft) 0,00 h 0,00 h 3,0 km/h (1 Bft)
24.01.2012 17:00 13,2 C 4,4 C 0,0 UV-I 0,0 C 54 % 95 % 0 % 1020,8 hPa 0,0 l/m 0,0 km/h (0 Bft) 0,00 h 0,00 h 0,0 km/h (0 Bft)
24.01.2012 18:00 13,2 C 3,9 C 0,0 UV-I 0,0 C 54 % 96 % 0 % 1020,9 hPa 0,0 l/m 0,0 km/h (0 Bft) 0,00 h 0,00 h 0,0 km/h (0 Bft)
24.01.2012 19:00 13,1 C 3,9 C 0,0 UV-I 0,0 C 54 % 96 % 0 % 1021,3 hPa 0,0 l/m 0,0 km/h (0 Bft) 0,00 h 0,00 h 0,3 km/h (0 Bft)
24.01.2012 20:00 13,1 C 3,9 C 0,0 UV-I 0,0 C 54 % 96 % 0 % 1021,4 hPa 0,0 l/m 0,0 km/h (0 Bft) 0,00 h 0,00 h 0,0 km/h (0 Bft)
24.01.2012 21:00 13,2 C 3,7 C 0,0 UV-I 0,0 C 54 % 96 % 0 % 1021,4 hPa 0,0 l/m 0,0 km/h (0 Bft) 0,00 h 0,00 h 0,0 km/h (0 Bft)
24.01.2012 22:00 13,2 C 3,0 C 0,0 UV-I 0,0 C 54 % 95 % 0 % 1021,6 hPa 0,0 l/m 0,0 km/h (0 Bft) 0,00 h 0,00 h 0,3 km/h (0 Bft)
24.01.2012 23:00 13,0 C 2,0 C 0,0 UV-I 0,0 C 53 % 95 % 0 % 1021,7 hPa 0,0 l/m 0,1 km/h (0 Bft) 0,00 h 0,00 h 0,3 km/h (0 Bft)
25.01.2012 00:00 12,8 C 1,5 C 0,0 UV-I 0,0 C 53 % 96 % 0 % 1021,5 hPa 0,0 l/m 0,0 km/h (0 Bft) 0,00 h 0,00 h 0,0 km/h (0 Bft)
25.01.2012 01:00 12,9 C 1,8 C 0,0 UV-I 0,0 C 53 % 96 % 0 % 1021,4 hPa 0,0 l/m 0,2 km/h (0 Bft) 0,00 h 0,00 h 0,3 km/h (0 Bft)
25.01.2012 02:00 13,0 C 2,0 C 0,0 UV-I 0,0 C 53 % 96 % 0 % 1021,2 hPa 0,0 l/m 0,6 km/h (0 Bft) 0,00 h 0,00 h 2,2 km/h (1 Bft)
25.01.2012 03:00 13,0 C 1,7 C 0,0 UV-I 0,0 C 53 % 96 % 0 % 1021,0 hPa 0,0 l/m 2,0 km/h (1 Bft) 0,00 h 0,00 h 5,7 km/h (1 Bft)
25.01.2012 04:00 12,9 C 1,2 C 0,0 UV-I 0,0 C 53 % 96 % 0 % 1021,2 hPa 0,0 l/m 4,1 km/h (1 Bft) 0,00 h 0,00 h 7,8 km/h (2 Bft)
25.01.2012 05:00 12,8 C 0,8 C 0,0 UV-I 0,0 C 52 % 96 % 0 % 1020,9 hPa 0,0 l/m 3,2 km/h (1 Bft) 0,00 h 0,00 h 6,4 km/h (2 Bft)
25.01.2012 06:00 12,8 C 0,6 C 0,0 UV-I 0,0 C 52 % 97 % 0 % 1021,0 hPa 0,0 l/m 2,4 km/h (1 Bft) 0,00 h 0,00 h 5,0 km/h (1 Bft)
25.01.2012 07:00 12,7 C 0,4 C 0,0 UV-I 0,0 C 52 % 97 % 0 % 1020,7 hPa 0,0 l/m 2,1 km/h (1 Bft) 0,00 h 0,07 h 5,6 km/h (1 Bft)
25.01.2012 08:00 12,6 C 0,5 C 0,0 UV-I 0,0 C 52 % 97 % 0 % 1020,7 hPa 0,0 l/m 4,3 km/h (1 Bft) 0,00 h 0,00 h 8,6 km/h (2 Bft)
25.01.2012 09:00 12,6 C 1,0 C 0,0 UV-I 0,0 C 51 % 97 % 1 % 1020,8 hPa 0,0 l/m 6,4 km/h (2 Bft) 0,00 h 0,00 h 11,4 km/h (2 Bft)
25.01.2012 10:00 12,7 C 2,2 C 0,0 UV-I 1,1 C 51 % 97 % 32 % 1020,7 hPa 0,0 l/m 6,2 km/h (2 Bft) 0,00 h 0,00 h 12,1 km/h (2 Bft)
25.01.2012 11:00 12,9 C 3,4 C 0,0 UV-I 0,6 C 51 % 95 % 17 % 1020,7 hPa 0,0 l/m 7,7 km/h (2 Bft) 0,00 h 0,00 h 13,7 km/h (3 Bft)
25.01.2012 12:00 13,1 C 4,1 C 0,0 UV-I 0,2 C 51 % 93 % 5 % 1020,2 hPa 0,0 l/m 8,1 km/h (2 Bft) 0,00 h 0,00 h 13,1 km/h (3 Bft)
25.01.2012 13:00 13,2 C 4,7 C 0,0 UV-I 0,3 C 51 % 91 % 8 % 1020,1 hPa 0,0 l/m 8,6 km/h (2 Bft) 0,00 h 0,00 h 14,5 km/h (3 Bft)
25.01.2012 14:00 13,3 C 4,9 C 0,0 UV-I 0,1 C 51 % 89 % 3 % 1019,4 hPa 0,0 l/m 9,1 km/h (2 Bft) 0,00 h 0,00 h 15,3 km/h (3 Bft)
25.01.2012 15:00 13,5 C 5,2 C 0,0 UV-I 0,3 C 51 % 87 % 8 % 1019,1 hPa 0,0 l/m 8,8 km/h (2 Bft) 0,00 h 0,00 h 14,6 km/h (3 Bft)
25.01.2012 16:00 13,5 C 4,8 C 0,0 UV-I 0,0 C 50 % 86 % 0 % 1018,8 hPa 0,0 l/m 9,6 km/h (2 Bft) 0,00 h 0,00 h 14,6 km/h (3 Bft)
25.01.2012 17:00 13,3 C 4,4 C 0,0 UV-I 0,0 C 51 % 87 % 0 % 1018,4 hPa 0,0 l/m 9,0 km/h (2 Bft) 0,00 h 0,00 h 15,2 km/h (3 Bft)
25.01.2012 18:00 13,2 C 4,2 C 0,0 UV-I 0,0 C 51 % 87 % 0 % 1018,7 hPa 0,0 l/m 10,6 km/h (2 Bft) 0,00 h 0,00 h 18,6 km/h (3 Bft)
25.01.2012 19:00 13,1 C 4,0 C 0,0 UV-I 0,0 C 51 % 87 % 0 % 1018,5 hPa 0,0 l/m 10,9 km/h (2 Bft) 0,00 h 0,00 h 17,3 km/h (3 Bft)
25.01.2012 20:00 13,0 C 3,5 C 0,0 UV-I 0,0 C 51 % 87 % 0 % 1018,4 hPa 0,0 l/m 10,8 km/h (2 Bft) 0,00 h 0,00 h 17,6 km/h (3 Bft)
25.01.2012 21:00 13,0 C 3,2 C 0,0 UV-I 0,0 C 50 % 87 % 0 % 1018,2 hPa 0,0 l/m 10,6 km/h (2 Bft) 0,00 h 0,00 h 16,1 km/h (3 Bft)
25.01.2012 22:00 13,0 C 3,1 C 0,0 UV-I 0,0 C 50 % 88 % 0 % 1018,1 hPa 0,0 l/m 11,8 km/h (2 Bft) 0,00 h 0,00 h 19,0 km/h (3 Bft)
25.01.2012 23:00 12,8 C 2,9 C 0,0 UV-I 0,0 C 50 % 88 % 0 % 1017,8 hPa 0,0 l/m 10,4 km/h (2 Bft) 0,00 h 0,00 h 18,7 km/h (3 Bft)
26.01.2012 00:00 12,8 C 3,0 C 0,0 UV-I 0,0 C 50 % 89 % 0 % 1017,6 hPa 0,0 l/m 10,3 km/h (2 Bft) 0,00 h 0,00 h 18,8 km/h (3 Bft)
26.01.2012 01:00 12,9 C 3,2 C 0,0 UV-I 0,0 C 50 % 89 % 0 % 1017,3 hPa 0,0 l/m 11,2 km/h (2 Bft) 0,00 h 0,00 h 17,4 km/h (3 Bft)
26.01.2012 02:00 12,8 C 3,2 C 0,0 UV-I 0,0 C 50 % 89 % 0 % 1016,9 hPa 0,0 l/m 11,4 km/h (2 Bft) 0,00 h 0,00 h 18,9 km/h (3 Bft)
26.01.2012 03:00 12,8 C 3,3 C 0,0 UV-I 0,0 C 50 % 89 % 0 % 1016,6 hPa 0,0 l/m 10,9 km/h (2 Bft) 0,00 h 0,00 h 19,3 km/h (3 Bft)
26.01.2012 04:00 12,8 C 3,2 C 0,0 UV-I 0,0 C 50 % 88 % 0 % 1016,2 hPa 0,0 l/m 12,3 km/h (3 Bft) 0,00 h 0,00 h 19,9 km/h (4 Bft)
26.01.2012 05:00 12,8 C 3,1 C 0,0 UV-I 0,0 C 50 % 88 % 0 % 1016,1 hPa 0,0 l/m 12,9 km/h (3 Bft) 0,00 h 0,00 h 19,9 km/h (4 Bft)
26.01.2012 06:00 12,8 C 2,9 C 0,0 UV-I 0,0 C 49 % 89 % 0 % 1015,8 hPa 0,0 l/m 14,5 km/h (3 Bft) 0,00 h 0,00 h 20,0 km/h (4 Bft)
26.01.2012 07:00 12,8 C 2,6 C 0,0 UV-I 0,0 C 49 % 89 % 0 % 1015,8 hPa 0,0 l/m 15,3 km/h (3 Bft) 0,00 h 0,00 h 24,1 km/h (4 Bft)
26.01.2012 08:00 12,6 C 2,4 C 0,0 UV-I 0,0 C 49 % 88 % 0 % 1015,7 hPa 0,0 l/m 15,5 km/h (3 Bft) 0,00 h 0,00 h 24,4 km/h (4 Bft)
26.01.2012 09:00 12,7 C 2,5 C 0,0 UV-I 0,0 C 48 % 87 % 0 % 1015,8 hPa 0,0 l/m 15,2 km/h (3 Bft) 0,00 h 0,00 h 25,4 km/h (4 Bft)
26.01.2012 10:00 12,8 C 2,8 C 0,0 UV-I 0,0 C 48 % 86 % 0 % 1015,6 hPa 0,0 l/m 15,8 km/h (3 Bft) 0,00 h 0,00 h 24,9 km/h (4 Bft)
26.01.2012 11:00 12,8 C 3,1 C 0,0 UV-I 0,0 C 48 % 85 % 0 % 1015,3 hPa 0,0 l/m 16,1 km/h (3 Bft) 0,00 h 0,00 h 24,7 km/h (4 Bft)
26.01.2012 12:00 12,8 C 3,7 C 0,1 UV-I 0,0 C 48 % 84 % 0 % 1014,7 hPa 0,0 l/m 16,0 km/h (3 Bft) 0,00 h 0,00 h 24,6 km/h (4 Bft)
26.01.2012 13:00 13,0 C 4,3 C 0,0 UV-I 0,0 C 48 % 82 % 0 % 1014,1 hPa 0,0 l/m 15,4 km/h (3 Bft) 0,00 h 0,00 h 26,6 km/h (4 Bft)
26.01.2012 14:00 13,0 C 4,4 C 0,0 UV-I 0,0 C 48 % 83 % 0 % 1014,2 hPa 0,1 l/m 14,4 km/h (3 Bft) 0,00 h 0,63 h 20,9 km/h (4 Bft)
26.01.2012 15:00 13,0 C 4,0 C 0,0 UV-I 0,0 C 49 % 87 % 0 % 1014,0 hPa 0,2 l/m 13,9 km/h (3 Bft) 0,00 h 0,53 h 21,8 km/h (4 Bft)
26.01.2012 16:00 12,8 C 4,0 C 0,0 UV-I 0,0 C 49 % 87 % 0 % 1013,9 hPa 0,0 l/m 14,4 km/h (3 Bft) 0,00 h 0,00 h 23,3 km/h (4 Bft)
26.01.2012 17:00 12,8 C 3,9 C 0,0 UV-I 0,0 C 49 % 86 % 0 % 1014,0 hPa 0,6 l/m 14,1 km/h (3 Bft) 0,00 h 0,67 h 20,9 km/h (4 Bft)
26.01.2012 18:00 12,7 C 3,3 C 0,0 UV-I 0,0 C 49 % 89 % 0 % 1014,4 hPa 0,0 l/m 16,5 km/h (3 Bft) 0,00 h 0,00 h 24,5 km/h (4 Bft)
26.01.2012 19:00 12,7 C 3,2 C 0,0 UV-I 0,0 C 49 % 89 % 0 % 1014,6 hPa 0,0 l/m 17,4 km/h (3 Bft) 0,00 h 0,00 h 27,4 km/h (4 Bft)
26.01.2012 20:00 12,6 C 3,2 C 0,0 UV-I 0,0 C 49 % 90 % 0 % 1014,9 hPa 0,1 l/m 15,0 km/h (3 Bft) 0,00 h 0,40 h 22,8 km/h (4 Bft)
26.01.2012 21:00 12,7 C 2,8 C 0,0 UV-I 0,0 C 50 % 92 % 0 % 1015,7 hPa 0,5 l/m 6,4 km/h (2 Bft) 0,00 h 0,87 h 9,9 km/h (2 Bft)
26.01.2012 22:00 12,8 C 2,8 C 0,0 UV-I 0,0 C 50 % 94 % 0 % 1016,2 hPa 0,1 l/m 8,6 km/h (2 Bft) 0,00 h 0,20 h 14,4 km/h (3 Bft)
26.01.2012 23:00 12,8 C 2,9 C 0,0 UV-I 0,0 C 50 % 94 % 0 % 1016,5 hPa 0,0 l/m 8,7 km/h (2 Bft) 0,00 h 0,00 h 13,3 km/h (3 Bft)
27.01.2012 00:00 12,8 C 3,0 C 0,0 UV-I 0,0 C 51 % 94 % 0 % 1016,9 hPa 0,0 l/m 9,6 km/h (2 Bft) 0,00 h 0,00 h 14,1 km/h (3 Bft)
27.01.2012 01:00 12,8 C 2,9 C 0,0 UV-I 0,0 C 51 % 94 % 0 % 1017,2 hPa 0,0 l/m 7,7 km/h (2 Bft) 0,00 h 0,00 h 13,5 km/h (3 Bft)
27.01.2012 02:00 12,8 C 2,5 C 0,0 UV-I 0,0 C 51 % 95 % 0 % 1017,3 hPa 0,0 l/m 6,2 km/h (2 Bft) 0,00 h 0,00 h 11,6 km/h (2 Bft)
27.01.2012 03:00 12,8 C 2,2 C 0,0 UV-I 0,0 C 51 % 95 % 0 % 1018,0 hPa 0,0 l/m 5,9 km/h (2 Bft) 0,00 h 0,00 h 8,9 km/h (2 Bft)
27.01.2012 04:00 12,8 C 1,9 C 0,0 UV-I 0,0 C 51 % 95 % 0 % 1018,2 hPa 0,0 l/m 5,6 km/h (1 Bft) 0,00 h 0,00 h 9,8 km/h (2 Bft)
27.01.2012 05:00 12,7 C 1,5 C 0,0 UV-I 0,0 C 51 % 95 % 0 % 1018,6 hPa 0,0 l/m 5,1 km/h (1 Bft) 0,00 h 0,00 h 8,0 km/h (2 Bft)
27.01.2012 06:00 12,7 C 1,2 C 0,0 UV-I 0,0 C 51 % 96 % 0 % 1019,0 hPa 0,0 l/m 4,0 km/h (1 Bft) 0,00 h 0,00 h 7,0 km/h (2 Bft)
27.01.2012 07:00 12,6 C 1,1 C 0,0 UV-I 0,0 C 51 % 96 % 0 % 1019,7 hPa 0,0 l/m 4,2 km/h (1 Bft) 0,00 h 0,00 h 7,6 km/h (2 Bft)
27.01.2012 08:00 12,6 C 1,1 C 0,0 UV-I 0,0 C 50 % 96 % 0 % 1020,1 hPa 0,0 l/m 3,5 km/h (1 Bft) 0,00 h 0,00 h 6,8 km/h (2 Bft)
27.01.2012 09:00 12,6 C 1,5 C 0,0 UV-I 0,0 C 51 % 96 % 1 % 1020,6 hPa 0,0 l/m 2,2 km/h (1 Bft) 0,00 h 0,00 h 4,5 km/h (1 Bft)
27.01.2012 10:00 12,7 C 3,5 C 0,0 UV-I 4,8 C 51 % 97 % 96 % 1021,2 hPa 0,0 l/m 3,0 km/h (1 Bft) 0,97 h 0,00 h 6,6 km/h (2 Bft)
27.01.2012 11:00 12,7 C 5,4 C 0,2 UV-I 5,9 C 51 % 94 % 100 % 1021,7 hPa 0,0 l/m 5,4 km/h (1 Bft) 1,00 h 0,00 h 10,7 km/h (2 Bft)
27.01.2012 12:00 12,9 C 6,8 C 0,4 UV-I 6,4 C 51 % 90 % 100 % 1021,7 hPa 0,0 l/m 4,5 km/h (1 Bft) 1,00 h 0,00 h 9,4 km/h (2 Bft)
27.01.2012 13:00 13,3 C 8,0 C 0,6 UV-I 6,0 C 51 % 82 % 100 % 1022,1 hPa 0,0 l/m 5,4 km/h (1 Bft) 1,00 h 0,00 h 9,6 km/h (2 Bft)
27.01.2012 14:00 14,7 C 8,5 C 0,3 UV-I 4,7 C 48 % 75 % 100 % 1022,7 hPa 0,0 l/m 4,9 km/h (1 Bft) 1,00 h 0,00 h 8,9 km/h (2 Bft)
27.01.2012 15:00 15,3 C 8,0 C 0,0 UV-I 2,0 C 45 % 75 % 58 % 1022,9 hPa 0,0 l/m 3,2 km/h (1 Bft) 0,60 h 0,00 h 8,1 km/h (2 Bft)
27.01.2012 16:00 14,9 C 7,1 C 0,0 UV-I 0,0 C 45 % 76 % 0 % 1022,8 hPa 0,0 l/m 2,5 km/h (1 Bft) 0,00 h 0,00 h 5,3 km/h (1 Bft)
27.01.2012 17:00 14,3 C 6,0 C 0,0 UV-I 0,0 C 47 % 79 % 0 % 1022,8 hPa 0,0 l/m 0,1 km/h (0 Bft) 0,00 h 0,00 h 0,5 km/h (0 Bft)
27.01.2012 18:00 13,7 C 4,6 C 0,0 UV-I 0,0 C 49 % 82 % 0 % 1023,1 hPa 0,0 l/m 0,1 km/h (0 Bft) 0,00 h 0,00 h 1,2 km/h (1 Bft)
27.01.2012 19:00 13,4 C 3,8 C 0,0 UV-I 0,0 C 50 % 85 % 0 % 1023,3 hPa 0,0 l/m 1,4 km/h (1 Bft) 0,00 h 0,00 h 4,4 km/h (1 Bft)
27.01.2012 20:00 13,2 C 3,1 C 0,0 UV-I 0,0 C 50 % 88 % 0 % 1023,5 hPa 0,0 l/m 3,3 km/h (1 Bft) 0,00 h 0,00 h 6,9 km/h (2 Bft)
27.01.2012 21:00 13,0 C 2,3 C 0,0 UV-I 0,0 C 51 % 90 % 0 % 1023,7 hPa 0,0 l/m 1,3 km/h (1 Bft) 0,00 h 0,00 h 3,2 km/h (1 Bft)
27.01.2012 22:00 12,9 C 1,5 C 0,0 UV-I 0,0 C 50 % 91 % 0 % 1024,1 hPa 0,0 l/m 1,6 km/h (1 Bft) 0,00 h 0,00 h 4,1 km/h (1 Bft)
27.01.2012 23:00 12,8 C 1,0 C 0,1 UV-I 0,0 C 50 % 92 % 0 % 1024,2 hPa 0,0 l/m 2,0 km/h (1 Bft) 0,00 h 0,00 h 5,6 km/h (1 Bft)
28.01.2012 00:00 12,8 C 0,7 C 0,0 UV-I 0,0 C 50 % 93 % 0 % 1024,2 hPa 0,0 l/m 1,7 km/h (1 Bft) 0,00 h 0,00 h 4,9 km/h (1 Bft)
28.01.2012 01:00 12,8 C 0,4 C 0,1 UV-I 0,0 C 50 % 94 % 0 % 1024,2 hPa 0,0 l/m 1,1 km/h (1 Bft) 0,00 h 0,00 h 2,8 km/h (1 Bft)
28.01.2012 02:00 12,8 C 0,4 C 0,0 UV-I 0,0 C 49 % 94 % 0 % 1024,6 hPa 0,0 l/m 3,0 km/h (1 Bft) 0,00 h 0,00 h 6,8 km/h (2 Bft)
28.01.2012 03:00 12,8 C 0,4 C 0,0 UV-I 0,0 C 49 % 95 % 0 % 1024,7 hPa 0,0 l/m 3,7 km/h (1 Bft) 0,00 h 0,00 h 7,2 km/h (2 Bft)
28.01.2012 04:00 12,8 C 0,1 C 0,0 UV-I 0,0 C 49 % 95 % 0 % 1024,6 hPa 0,0 l/m 1,2 km/h (1 Bft) 0,00 h 0,03 h 2,8 km/h (1 Bft)
28.01.2012 05:00 12,7 C -0,1 C 0,0 UV-I 0,0 C 49 % 95 % 0 % 1025,1 hPa 0,0 l/m 1,4 km/h (1 Bft) 0,00 h 0,00 h 5,1 km/h (1 Bft)
28.01.2012 06:00 12,6 C 0,0 C 0,0 UV-I 0,0 C 49 % 96 % 0 % 1025,5 hPa 0,0 l/m 4,2 km/h (1 Bft) 0,00 h 0,17 h 8,4 km/h (2 Bft)
28.01.2012 07:00 12,6 C 0,4 C 0,0 UV-I 0,0 C 49 % 97 % 0 % 1026,1 hPa 0,0 l/m 6,4 km/h (2 Bft) 0,00 h 0,00 h 11,9 km/h (2 Bft)
28.01.2012 08:00 12,6 C 0,8 C 0,0 UV-I 0,0 C 49 % 97 % 0 % 1026,2 hPa 0,1 l/m 6,2 km/h (2 Bft) 0,00 h 0,00 h 10,7 km/h (2 Bft)
28.01.2012 09:00 12,7 C 1,3 C 0,0 UV-I 0,0 C 49 % 97 % 0 % 1026,9 hPa 0,0 l/m 1,9 km/h (1 Bft) 0,00 h 0,00 h 5,0 km/h (1 Bft)
28.01.2012 10:00 12,8 C 1,9 C 0,0 UV-I 0,1 C 49 % 96 % 4 % 1027,3 hPa 0,0 l/m 4,3 km/h (1 Bft) 0,00 h 0,00 h 8,0 km/h (2 Bft)
28.01.2012 11:00 12,9 C 2,5 C 0,0 UV-I 0,5 C 50 % 96 % 15 % 1027,6 hPa 0,0 l/m 4,6 km/h (1 Bft) 0,00 h 0,07 h 8,1 km/h (2 Bft)
28.01.2012 12:00 13,1 C 3,2 C 0,1 UV-I 1,5 C 49 % 95 % 42 % 1027,7 hPa 0,0 l/m 2,9 km/h (1 Bft) 0,00 h 0,00 h 5,9 km/h (2 Bft)
28.01.2012 13:00 13,6 C 4,3 C 0,5 UV-I 3,3 C 49 % 92 % 84 % 1027,7 hPa 0,0 l/m 2,6 km/h (1 Bft) 0,50 h 0,00 h 6,0 km/h (2 Bft)
28.01.2012 14:00 14,9 C 5,4 C 0,2 UV-I 5,5 C 47 % 86 % 100 % 1028,4 hPa 0,0 l/m 1,9 km/h (1 Bft) 1,00 h 0,00 h 3,9 km/h (1 Bft)
28.01.2012 15:00 16,0 C 5,3 C 0,0 UV-I 5,2 C 44 % 82 % 98 % 1028,7 hPa 0,0 l/m 1,8 km/h (1 Bft) 1,00 h 0,00 h 4,1 km/h (1 Bft)
28.01.2012 16:00 15,5 C 4,2 C 0,0 UV-I 0,3 C 44 % 86 % 9 % 1028,5 hPa 0,0 l/m 5,3 km/h (1 Bft) 0,10 h 0,00 h 8,0 km/h (2 Bft)
28.01.2012 17:00 14,6 C 3,3 C 0,0 UV-I 0,0 C 46 % 89 % 0 % 1028,2 hPa 0,0 l/m 8,7 km/h (2 Bft) 0,00 h 0,00 h 12,1 km/h (2 Bft)
28.01.2012 18:00 13,8 C 2,3 C 0,0 UV-I 0,0 C 47 % 87 % 0 % 1028,9 hPa 0,0 l/m 5,5 km/h (1 Bft) 0,00 h 0,00 h 8,6 km/h (2 Bft)
28.01.2012 19:00 13,5 C 1,9 C 0,0 UV-I 0,0 C 48 % 87 % 0 % 1029,5 hPa 0,0 l/m 4,5 km/h (1 Bft) 0,00 h 0,00 h 7,4 km/h (2 Bft)
28.01.2012 20:00 13,2 C 1,7 C 0,0 UV-I 0,0 C 48 % 87 % 0 % 1029,4 hPa 0,0 l/m 0,8 km/h (0 Bft) 0,00 h 0,00 h 1,8 km/h (1 Bft)
28.01.2012 21:00 13,1 C 1,6 C 0,0 UV-I 0,0 C 48 % 88 % 0 % 1029,0 hPa 0,0 l/m 0,4 km/h (0 Bft) 0,00 h 0,00 h 1,5 km/h (1 Bft)
28.01.2012 22:00 13,1 C 2,1 C 0,0 UV-I 0,0 C 48 % 87 % 0 % 1029,3 hPa 0,0 l/m 0,6 km/h (0 Bft) 0,00 h 0,00 h 2,3 km/h (1 Bft)
28.01.2012 23:00 13,2 C 2,1 C 0,0 UV-I 0,0 C 48 % 86 % 0 % 1029,6 hPa 0,0 l/m 3,4 km/h (1 Bft) 0,00 h 0,00 h 6,2 km/h (2 Bft)
29.01.2012 00:00 13,2 C 1,8 C 0,0 UV-I 0,0 C 48 % 86 % 0 % 1029,4 hPa 0,0 l/m 3,6 km/h (1 Bft) 0,00 h 0,00 h 6,3 km/h (2 Bft)
29.01.2012 01:00 13,1 C 1,3 C 0,0 UV-I 0,0 C 47 % 84 % 0 % 1029,6 hPa 0,0 l/m 4,4 km/h (1 Bft) 0,00 h 0,00 h 8,2 km/h (2 Bft)
29.01.2012 02:00 13,1 C 1,0 C 0,0 UV-I 0,0 C 47 % 85 % 0 % 1029,7 hPa 0,0 l/m 2,9 km/h (1 Bft) 0,00 h 0,00 h 5,3 km/h (1 Bft)
29.01.2012 03:00 13,0 C 0,8 C 0,0 UV-I 0,0 C 47 % 86 % 0 % 1029,4 hPa 0,0 l/m 5,0 km/h (1 Bft) 0,00 h 0,00 h 9,2 km/h (2 Bft)
29.01.2012 04:00 13,0 C 0,7 C 0,0 UV-I 0,0 C 47 % 86 % 0 % 1029,2 hPa 0,0 l/m 5,5 km/h (1 Bft) 0,00 h 0,00 h 10,0 km/h (2 Bft)
29.01.2012 05:00 13,0 C 0,7 C 0,0 UV-I 0,0 C 46 % 85 % 0 % 1029,2 hPa 0,0 l/m 3,9 km/h (1 Bft) 0,00 h 0,00 h 5,6 km/h (1 Bft)
29.01.2012 06:00 12,9 C 0,7 C 0,0 UV-I 0,0 C 46 % 84 % 0 % 1029,1 hPa 0,0 l/m 5,8 km/h (2 Bft) 0,00 h 0,00 h 9,1 km/h (2 Bft)
29.01.2012 07:00 12,9 C 0,4 C 0,0 UV-I 0,0 C 45 % 84 % 0 % 1029,1 hPa 0,0 l/m 3,1 km/h (1 Bft) 0,00 h 0,00 h 5,4 km/h (1 Bft)
29.01.2012 08:00 12,8 C 0,3 C 0,0 UV-I 0,0 C 45 % 85 % 0 % 1029,4 hPa 0,0 l/m 4,9 km/h (1 Bft) 0,00 h 0,00 h 8,8 km/h (2 Bft)
29.01.2012 09:00 12,8 C -0,0 C 0,0 UV-I 0,0 C 45 % 85 % 0 % 1029,4 hPa 0,0 l/m 5,0 km/h (1 Bft) 0,00 h 0,00 h 7,9 km/h (2 Bft)
29.01.2012 10:00 12,8 C -0,3 C 0,0 UV-I 0,0 C 44 % 83 % 0 % 1029,5 hPa 0,0 l/m 5,9 km/h (2 Bft) 0,00 h 0,00 h 9,3 km/h (2 Bft)
29.01.2012 11:00 12,8 C -0,2 C 0,0 UV-I 0,1 C 44 % 84 % 3 % 1029,6 hPa 0,0 l/m 7,5 km/h (2 Bft) 0,00 h 0,00 h 10,3 km/h (2 Bft)
29.01.2012 12:00 12,8 C -0,1 C 0,0 UV-I 0,0 C 44 % 85 % 0 % 1029,2 hPa 0,0 l/m 7,1 km/h (2 Bft) 0,00 h 0,00 h 10,6 km/h (2 Bft)
29.01.2012 13:00 12,8 C -0,1 C 0,0 UV-I 0,0 C 44 % 86 % 0 % 1028,7 hPa 0,0 l/m 4,8 km/h (1 Bft) 0,00 h 0,00 h 7,8 km/h (2 Bft)
29.01.2012 14:00 12,8 C -0,1 C 0,0 UV-I 0,0 C 44 % 85 % 0 % 1028,4 hPa 0,0 l/m 8,3 km/h (2 Bft) 0,00 h 0,00 h 13,9 km/h (3 Bft)
29.01.2012 15:00 12,7 C -0,6 C 0,0 UV-I 0,0 C 44 % 87 % 0 % 1028,2 hPa 0,0 l/m 12,1 km/h (2 Bft) 0,00 h 0,00 h 18,1 km/h (3 Bft)
29.01.2012 16:00 12,6 C -0,9 C 0,0 UV-I 0,0 C 44 % 89 % 0 % 1028,4 hPa 0,0 l/m 10,8 km/h (2 Bft) 0,00 h 0,00 h 15,0 km/h (3 Bft)
29.01.2012 17:00 12,4 C -1,0 C 0,0 UV-I 0,0 C 44 % 88 % 0 % 1028,1 hPa 0,0 l/m 8,5 km/h (2 Bft) 0,00 h 0,00 h 12,2 km/h (2 Bft)
29.01.2012 18:00 12,3 C -1,1 C 0,0 UV-I 0,0 C 44 % 88 % 0 % 1028,0 hPa 0,0 l/m 7,1 km/h (2 Bft) 0,00 h 0,00 h 10,6 km/h (2 Bft)
29.01.2012 19:00 12,2 C -0,9 C 0,0 UV-I 0,0 C 44 % 88 % 0 % 1027,6 hPa 0,0 l/m 4,4 km/h (1 Bft) 0,00 h 0,00 h 7,9 km/h (2 Bft)
29.01.2012 20:00 12,2 C -0,8 C 0,0 UV-I 0,0 C 44 % 88 % 0 % 1027,3 hPa 0,0 l/m 3,4 km/h (1 Bft) 0,00 h 0,00 h 6,5 km/h (2 Bft)
29.01.2012 21:00 12,2 C -0,9 C 0,0 UV-I 0,0 C 44 % 90 % 0 % 1027,4 hPa 0,0 l/m 2,4 km/h (1 Bft) 0,00 h 0,00 h 5,7 km/h (1 Bft)
29.01.2012 22:00 12,1 C -1,0 C 0,0 UV-I 0,0 C 44 % 91 % 0 % 1027,0 hPa 0,0 l/m 6,7 km/h (2 Bft) 0,00 h 0,00 h 9,0 km/h (2 Bft)
29.01.2012 23:00 12,1 C -1,3 C 0,0 UV-I 0,0 C 44 % 94 % 0 % 1026,8 hPa 0,0 l/m 7,2 km/h (2 Bft) 0,00 h 0,20 h 10,0 km/h (2 Bft)
Min-Datum _ 29.01.12 29.01.12 23.01.12 23.01.12 28.01.12 27.01.12 23.01.12 23.01.12 - 24.01.12 - - 23.01.12
_ Min-Zeit 23:46 23:48 00:00 00:00 15:50 14:42 00:00 00:24 - 03:22 - - 02:36
Minimum _ 11,9 C -1,5 C 0,0 UV-I 0,0 C 43 % 73 % 0 % 1013,0 hPa - 0,0 km/h (0 Bft) - - 0,0 km/h (0 Bft)
Max-Datum _ 28.01.12 27.01.12 27.01.12 27.01.12 23.01.12 24.01.12 24.01.12 28.01.12 23.01.12 26.01.12 23.01.12 23.01.12 26.01.12
_ Max-Zeit 15:36 14:20 13:28 12:44 10:04 09:56 10:14 23:04 22:08 11:02 15:12 00:30 13:16
Maximum _ 16,2 C 8,7 C 0,7 UV-I 6,7 C 56 % 98 % 100 % 1029,8 hPa 1,9 l/m 20,1 km/h
O-SO (4 Bft)
0,03 h 0,03 h 48,2 km/h
O-SO (6 Bft)
Durchschnitt _ 13,0 C 2,8 C 0,0 UV-I 0,3 C 50 % 91 % 7 % 1020,9 hPa #5,7 l/m 5,6 km/h (1 Bft) #9:06 h #5:46 h 9,9 km/h (2 Bft)
© 2012 W. Hausmann